Orbital Elements at Epoch 2459000.5 (2020-May-31.0) TDB
Reference: JPL 16 (heliocentric ecliptic J2000)
Element | Value | Uncertainty (1-sigma) | Units |
e | .1571897335380089 | 6.162e-08 | |
a | 3.984351892046235 | 5.9172e-08 | au |
q | 3.358052679813826 | 2.4176e-07 | au |
i | .8610847192202318 | 6.3896e-06 | deg |
node | 39.12075718944733 | 0.00047827 | deg |
peri | 253.6225347551706 | 0.00047903 | deg |
M | 32.04035089657631 | 2.5043e-05 | deg |
tp | 2458741.958823146242 (2019-Sep-15.45882315) | 0.00020237 | TDB |
period | 2904.925229058544 7.95 | 6.4712e-05 1.772e-07 | d yr |
n | .123927458235017 | 2.7607e-09 | deg/d |
Q | 4.610651104278643 | 6.8473e-08 | au |
|
| | Orbit Determination Parameters
Additional Information
|